User: anonymous
Location: Solon
(41.3849°N, 81.4081°W)
Time: 10:28:47
(UTC-04:00)
Language:

CZ-2C R/B - Orbit

View from above orbital plane
View from above orbital plane
View from above satellite
View from above satellite

Ground track
Ground track

The orbit data is extracted from the following two-line orbital elements,

1 28480U 04046B   14274.50447061  .00000321  00000-0  13862-3 0  4546
2 28480 098.1044 062.3792 0141424 267.2906 131.8639 14.25337970513233
Epoch (UTC): 01 October 2014 12:06:26
Eccentricity: 0.0141424
inclination: 98.1044°
perigee height: 706 km
apogee height: 909 km
right ascension of ascending node: 62.3792°
argument of perigee: 267.2906°
revolutions per day: 14.25337970
mean anomaly at epoch: 131.8639°
orbit number at epoch: 51323

The dashed part of the orbit path shows where the satellite is in the earth's shadow,  

DLR